Home   Weather   Aberdeen   Past weeks

Flag for United Kingdom Past Weather in Aberdeen, Scotland, United Kingdom — Yesterday and Last 2 Weeks

Now
39 °F

Fog.


Feels Like: 34 °F
Forecast: N/A
Wind: 8 mph from South

Location: Aberdeen / Dyce

Current Time: Jan 21, 2017 at 3:47:01 pm

Latest Report: Jan 21, 2017 at 2:50 pm


Visibility: N/A

Pressure: 30.33 "Hg

Humidity: 81%

Dew Point: 34 °F

Location of AberdeenLocation

Past Weather in Aberdeen — Graph

°F

Aberdeen Temperature Yesterday

Maximum temperature yesterday: 41 °F (at 1:50 pm)
Minimum temperature yesterday: 27 °F (at 2:50 am)
Average temperature yesterday: 33 °F

High & Low Weather Summary for the Past Weeks

 TemperatureHumidityPressure
High55 °F (Jan 17, 12:50 pm)100% (Jan 6, 8:50 pm)30.57 "Hg (Jan 6, 8:50 pm)
Low27 °F (Jan 20, 2:50 am)52% (Jan 12, 1:50 pm)29.09 "Hg (Jan 11, 12:50 am)
Average40 °F86%30.03 "Hg
* Reported Jan 6 2:20 pm — Jan 21 2:20 pm, Aberdeen, Weather by CustomWeather, © 2017

Note: Actual official high and low records may vary slightly from our data, if they occured in-between our weather recording intervals... More about our weather records

Advertising

Aberdeen Weather History for the Previous 24 Hours

Scroll right to see more
 ConditionsComfort  
Time TempWeatherWind HumidityBarometerVisibility
2:20 pm
Sat, Jan 21
39 °FSunny.9 mph87%30.33 "Hg10 mi
1:50 pm41 °FSunny.10 mph81%30.33 "Hg10 mi
1:20 pm41 °FSunny.10 mph81%30.33 "Hg10 mi
12:50 pm41 °FSunny.6 mph81%30.36 "Hg10 mi
12:20 pm39 °FSunny.6 mph87%30.36 "Hg10 mi
11:50 am37 °FSunny.7 mph87%30.39 "Hg10 mi
11:20 am37 °FClear.8 mph87%30.39 "Hg6 mi
10:50 am36 °FClear.8 mph93%30.39 "Hg6 mi
10:20 am34 °FPassing clouds.8 mph100%30.39 "HgN/A
9:50 am34 °FPassing clouds.7 mph93%30.39 "HgN/A
9:20 am34 °FPassing clouds.7 mph93%30.39 "HgN/A
8:50 am34 °FPassing clouds.5 mph93%30.39 "HgN/A
8:20 am34 °FPassing clouds.6 mph93%30.39 "HgN/A
7:50 am34 °FPassing clouds.6 mph93%30.39 "HgN/A
7:20 am34 °FPassing clouds.6 mph100%30.39 "Hg6 mi
6:50 am34 °FPassing clouds.8 mph100%30.39 "Hg5 mi
6:20 am34 °FPassing clouds.9 mph100%30.39 "Hg5 mi
5:50 am36 °FPassing clouds.9 mph93%30.39 "Hg5 mi
5:20 am36 °FPassing clouds.7 mph93%30.39 "Hg5 mi
4:50 am36 °FPassing clouds.9 mph93%30.39 "Hg5 mi
4:20 am36 °FLow clouds.12 mph100%30.39 "Hg6 mi
3:50 am36 °FLow clouds.14 mph100%30.39 "Hg5 mi
3:20 am36 °FLow clouds.15 mph100%30.39 "Hg5 mi
2:50 am37 °FLow clouds.15 mph93%30.39 "Hg4 mi
2:20 am37 °FLow clouds.14 mph93%30.42 "Hg4 mi
1:50 am37 °FLow clouds.14 mph93%30.42 "Hg4 mi
1:20 am37 °FFog.12 mph93%30.42 "Hg3 mi
12:50 am37 °FFog.12 mph93%30.42 "Hg3 mi
12:20 am37 °FFog.13 mph93%30.42 "Hg3 mi
11:50 pm
Fri, Jan 20
37 °FFog.8 mph93%30.45 "Hg3 mi
11:20 pm37 °FFog.13 mph93%30.45 "Hg3 mi
10:50 pm37 °FFog.14 mph93%30.45 "Hg3 mi
10:20 pm37 °FFog.9 mph93%30.45 "Hg3 mi
9:50 pm37 °FFog.10 mph93%30.48 "Hg3 mi
9:20 pm37 °FFog.10 mph93%30.48 "Hg3 mi
8:50 pm37 °FFog.9 mph93%30.48 "Hg3 mi
8:20 pm37 °FFog.7 mph93%30.48 "Hg3 mi
7:50 pm37 °FLow clouds.8 mph93%30.48 "Hg4 mi
7:20 pm37 °FLow clouds.8 mph93%30.48 "Hg4 mi
6:50 pm37 °FPassing clouds.7 mph93%30.48 "Hg4 mi
6:20 pm36 °FLow clouds.5 mph100%30.48 "Hg6 mi
5:50 pm36 °FPassing clouds.6 mph100%30.48 "HgN/A
5:20 pm34 °FPassing clouds.6 mph100%30.48 "Hg5 mi
4:50 pm34 °FPassing clouds.6 mph100%30.48 "HgN/A
3:50 pm36 °FPassing clouds.5 mph93%30.48 "HgN/A
3:20 pm39 °FSunny.1 mph93%30.48 "Hg10 mi
Weather by CustomWeather, © 2017

See weather overviewHow to use our weather pages